| time (UTC) | temp C | wind direction | speed KPH | gust KPH | rain 1hr cm | rain 24hr cm | rain mn cm | humidity % | barometer mb |
| 20260504014503 | 6 | 240 | 11.3 | 11.3 | 0.00 | 0.00 | 0.00 | 95 | 1006.9 |
| 20260504014004 | 6 | 240 | 11.3 | 11.3 | 0.00 | 0.00 | 0.00 | 94 | 1006.9 |
| 20260504013504 | 6 | 240 | 11.3 | 11.3 | 0.00 | 0.00 | 0.00 | 94 | 1006.9 |
| 20260504013003 | 7 | 240 | 11.3 | 11.3 | 0.00 | 0.00 | 0.00 | 94 | 1006.9 |
| 20260504012503 | 7 | 240 | 11.3 | 11.3 | 0.00 | 0.00 | 0.00 | 95 | 1006.9 |
| 20260504012004 | 7 | 240 | 11.3 | 11.3 | 0.00 | 0.00 | 0.00 | 95 | 1006.8 |
| 20260504010503 | 7 | 240 | 11.3 | 11.3 | 0.00 | 0.00 | 0.00 | 93 | 1006.8 |
| 20260504010003 | 7 | 240 | 11.3 | 11.3 | 0.00 | 0.00 | 0.00 | 91 | 1007.0 |
| 20260504005504 | 7 | 240 | 11.3 | 11.3 | 0.00 | 0.00 | 0.00 | 90 | 1007.0 |
| 20260504005003 | 7 | 240 | 11.3 | 11.3 | 0.00 | 0.00 | 0.00 | 90 | 1007.0 |
| 20260504004504 | 7 | 240 | 11.3 | 11.3 | 0.00 | 0.00 | 0.00 | 89 | 1007.0 |
| 20260504003503 | 7 | 240 | 11.3 | 11.3 | 0.00 | 0.00 | 0.00 | 90 | 1006.9 |
| 20260504003003 | 7 | 240 | 11.3 | 11.3 | 0.00 | 0.00 | 0.00 | 90 | 1007.1 |
| 20260504002504 | 7 | 240 | 11.3 | 11.3 | 0.00 | 0.00 | 0.00 | 89 | 1006.9 |
| 20260504002003 | 7 | 240 | 11.3 | 11.3 | 0.00 | 0.00 | 0.00 | 89 | 1006.9 |
| 20260504001503 | 8 | 240 | 11.3 | 11.3 | 0.00 | 0.00 | 0.00 | 88 | 1006.9 |
| 20260504001003 | 8 | 240 | 11.3 | 11.3 | 0.00 | 0.00 | 0.00 | 86 | 1006.9 |
| 20260504000503 | 8 | 240 | 11.3 | 11.3 | 0.00 | 0.00 | 0.00 | 86 | 1006.8 |
| 20260504000004 | 7 | 240 | 11.3 | 11.3 | 0.00 | 0.00 | 0.00 | 86 | 1006.8 |
| 20260503235503 | 7 | 240 | 11.3 | 11.3 | 0.00 | 0.00 | 0.00 | 86 | 1006.9 |
| 20260503235003 | 7 | 240 | 11.3 | 11.3 | 0.00 | 0.00 | 0.00 | 86 | 1006.9 |
| 20260503234503 | 7 | 240 | 11.3 | 11.3 | 0.00 | 0.00 | 0.00 | 87 | 1006.9 |
| 20260503233503 | 7 | 240 | 11.3 | 11.3 | 0.00 | 0.00 | 0.00 | 89 | 1006.9 |
| 20260503233003 | 7 | 240 | 11.3 | 11.3 | 0.00 | 0.00 | 0.00 | 90 | 1007.0 |
| 20260503232004 | 7 | 240 | 11.3 | 11.3 | 0.00 | 0.00 | 0.00 | 92 | 1007.1 |
| 20260503230504 | 7 | 220 | 4.8 | 4.8 | 0.00 | 0.00 | 0.00 | 93 | 1007.1 |
| 20260503230003 | 7 | 220 | 4.8 | 4.8 | 0.00 | 0.00 | 0.00 | 93 | 1007.2 |
| 20260503225003 | 7 | 220 | 4.8 | 4.8 | 0.00 | 0.00 | 0.00 | 93 | 1007.3 |
| 20260503224004 | 7 | 220 | 4.8 | 4.8 | 0.00 | 0.00 | 0.00 | 94 | 1007.5 |
| 20260503223503 | 7 | 220 | 4.8 | 4.8 | 0.00 | 0.00 | 0.00 | 93 | 1007.5 |
| 20260503223003 | 7 | 220 | 4.8 | 4.8 | 0.00 | 0.00 | 0.00 | 92 | 1007.7 |
| 20260503221003 | 7 | 190 | 12.9 | 12.9 | 0.00 | 0.00 | 0.00 | 90 | 1007.8 |
| 20260503220503 | 6 | 190 | 12.9 | 12.9 | 0.00 | 0.00 | 0.00 | 88 | 1007.7 |
| 20260503220003 | 6 | 190 | 12.9 | 12.9 | 0.00 | 0.00 | 0.00 | 87 | 1007.6 |
| 20260503215503 | 6 | 190 | 12.9 | 12.9 | 0.00 | 0.00 | 0.00 | 87 | 1007.7 |
| 20260503215004 | 7 | 190 | 12.9 | 12.9 | 0.00 | 0.00 | 0.00 | 86 | 1007.7 |
| 20260503214503 | 7 | 190 | 12.9 | 12.9 | 0.00 | 0.00 | 0.00 | 84 | 1007.8 |
| 20260503214003 | 7 | 190 | 12.9 | 12.9 | 0.00 | 0.00 | 0.00 | 83 | 1007.5 |
| 20260503213503 | 7 | 190 | 12.9 | 12.9 | 0.00 | 0.00 | 0.00 | 81 | 1007.5 |
| 20260503213004 | 7 | 190 | 12.9 | 12.9 | 0.00 | 0.00 | 0.00 | 79 | 1007.3 |
| 20260503212503 | 7 | 190 | 12.9 | 12.9 | 0.00 | 0.00 | 0.00 | 76 | 1007.2 |
| 20260503211503 | 8 | 180 | 14.5 | 14.5 | 0.00 | 0.00 | 0.00 | 72 | 1007.3 |
| 20260503211003 | 8 | 180 | 14.5 | 14.5 | 0.00 | 0.00 | 0.00 | 71 | 1007.2 |
| 20260503210503 | 8 | 180 | 14.5 | 14.5 | 0.00 | 0.00 | 0.00 | 70 | 1007.1 |
| 20260503205504 | 8 | 200 | 14.5 | 14.5 | 0.00 | 0.00 | 0.00 | 69 | 1007.0 |
| 20260503205003 | 9 | 200 | 14.5 | 14.5 | 0.00 | 0.00 | 0.00 | 70 | 1006.9 |
| 20260503204503 | 9 | 180 | 14.5 | 14.5 | 0.00 | 0.00 | 0.00 | 68 | 1007.2 |
| 20260503204004 | 10 | 180 | 14.5 | 14.5 | 0.00 | 0.00 | 0.00 | 66 | 1007.4 |
| 20260503203503 | 10 | 180 | 14.5 | 14.5 | 0.00 | 0.00 | 0.00 | 64 | 1007.5 |
| 20260503203003 | 10 | 180 | 14.5 | 14.5 | 0.00 | 0.00 | 0.00 | 63 | 1007.4 |
| 20260503201503 | 11 | 200 | 14.5 | 33.8 | 0.00 | 0.00 | 0.00 | 59 | 1007.3 |
| 20260503201003 | 11 | 200 | 14.5 | 33.8 | 0.00 | 0.00 | 0.00 | 59 | 1007.4 |
| 20260503200003 | 11 | 200 | 14.5 | 33.8 | 0.00 | 0.00 | 0.00 | 61 | 1007.5 |
| 20260503195503 | 11 | 200 | 14.5 | 33.8 | 0.00 | 0.00 | 0.00 | 62 | 1007.5 |
| 20260503195004 | 11 | 200 | 14.5 | 33.8 | 0.00 | 0.00 | 0.00 | 60 | 1007.8 |
| 20260503194504 | 11 | 200 | 14.5 | 33.8 | 0.00 | 0.00 | 0.00 | 60 | 1007.9 |
| 20260503194003 | 11 | 200 | 14.5 | 33.8 | 0.00 | 0.00 | 0.00 | 58 | 1008.3 |
| 20260503193504 | 11 | 200 | 14.5 | 33.8 | 0.00 | 0.00 | 0.00 | 58 | 1008.4 |
| 20260503193003 | 11 | 200 | 14.5 | 33.8 | 0.00 | 0.00 | 0.00 | 58 | 1008.6 |
| 20260503192503 | 11 | 200 | 14.5 | 33.8 | 0.00 | 0.00 | 0.00 | 59 | 1008.7 |
| 20260503192004 | 11 | 200 | 14.5 | 33.8 | 0.00 | 0.00 | 0.00 | 56 | 1008.8 |
| 20260503191004 | 11 | 190 | 16.1 | 33.8 | 0.00 | 0.00 | 0.00 | 55 | 1008.8 |
| 20260503190503 | 11 | 190 | 16.1 | 33.8 | 0.00 | 0.00 | 0.00 | 54 | 1008.9 |
| 20260503190004 | 11 | 190 | 16.1 | 33.8 | 0.00 | 0.00 | 0.00 | 52 | 1009.0 |
| 20260503185504 | 11 | 190 | 16.1 | 33.8 | 0.00 | 0.00 | 0.00 | 51 | 1009.1 |
| 20260503185004 | 11 | 190 | 16.1 | 33.8 | 0.00 | 0.00 | 0.00 | 51 | 1009.2 |
| 20260503184504 | 11 | 190 | 16.1 | 33.8 | 0.00 | 0.00 | 0.00 | 53 | 1009.2 |
| 20260503184003 | 11 | 190 | 16.1 | 33.8 | 0.00 | 0.00 | 0.00 | 52 | 1009.3 |
| 20260503183504 | 10 | 190 | 16.1 | 33.8 | 0.00 | 0.00 | 0.00 | 52 | 1009.4 |
| 20260503183003 | 10 | 190 | 16.1 | 33.8 | 0.00 | 0.00 | 0.00 | 51 | 1009.5 |
| 20260503182504 | 10 | 190 | 16.1 | 33.8 | 0.00 | 0.00 | 0.00 | 49 | 1009.5 |
| 20260503182005 | 10 | 190 | 16.1 | 33.8 | 0.00 | 0.00 | 0.00 | 48 | 1009.5 |
| 20260503181504 | 10 | 180 | 20.9 | 20.9 | 0.00 | 0.00 | 0.00 | 51 | 1009.6 |
| 20260503181004 | 10 | 180 | 20.9 | 20.9 | 0.00 | 0.00 | 0.00 | 49 | 1009.7 |
| 20260503180504 | 10 | 180 | 20.9 | 20.9 | 0.00 | 0.00 | 0.00 | 51 | 1009.8 |
| 20260503180004 | 10 | 180 | 20.9 | 20.9 | 0.00 | 0.00 | 0.00 | 52 | 1010.0 |
| 20260503175504 | 9 | 180 | 20.9 | 20.9 | 0.00 | 0.00 | 0.00 | 52 | 1010.0 |
| 20260503175003 | 9 | 180 | 20.9 | 20.9 | 0.00 | 0.00 | 0.00 | 57 | 1009.9 |
| 20260503174503 | 8 | 180 | 20.9 | 20.9 | 0.00 | 0.00 | 0.00 | 59 | 1010.0 |
| 20260503174004 | 8 | 180 | 20.9 | 20.9 | 0.00 | 0.00 | 0.00 | 59 | 1010.3 |
| 20260503173503 | 8 | 180 | 20.9 | 20.9 | 0.00 | 0.00 | 0.00 | 61 | 1010.4 |
| 20260503173004 | 8 | 180 | 20.9 | 20.9 | 0.00 | 0.00 | 0.00 | 60 | 1010.5 |
| 20260503172504 | 8 | 180 | 20.9 | 20.9 | 0.00 | 0.00 | 0.00 | 62 | 1010.6 |
| 20260503172004 | 8 | 180 | 20.9 | 20.9 | 0.00 | 0.00 | 0.00 | 62 | 1010.6 |
| 20260503171503 | 8 | 190 | 14.5 | 14.5 | 0.00 | 0.00 | 0.00 | 63 | 1010.6 |
| 20260503171003 | 8 | 190 | 14.5 | 14.5 | 0.00 | 0.00 | 0.00 | 63 | 1010.6 |
| 20260503170504 | 8 | 190 | 14.5 | 14.5 | 0.00 | 0.00 | 0.00 | 64 | 1010.7 |
| 20260503151004 | 5 | 200 | 16.1 | 16.1 | 0.00 | 0.00 | 0.00 | 75 | 1011.8 |
| 20260503150504 | 6 | 200 | 16.1 | 16.1 | 0.00 | 0.00 | 0.00 | 74 | 1012.0 |
| 20260503131003 | 3 | 20 | 4.8 | 4.8 | 0.00 | 0.00 | 0.00 | 69 | 1012.4 |
| 20260503090504 | -1 | 320 | 3.2 | 3.2 | 0.00 | 0.00 | 0.00 | 79 | 1012.6 |
| 20260503081504 | 0 | 320 | 3.2 | 3.2 | 0.00 | 0.00 | 0.00 | 73 | 1012.7 |
| 20260503081004 | 0 | 320 | 3.2 | 3.2 | 0.00 | 0.00 | 0.00 | 73 | 1012.8 |
| 20260503072003 | 0 | 320 | 3.2 | 4.8 | 0.00 | 0.00 | 0.00 | 75 | 1012.8 |
| 20260503071004 | 0 | 0 | 4.8 | 4.8 | 0.00 | 0.00 | 0.00 | 76 | 1012.8 |
| 20260503055004 | 0 | 350 | 3.2 | 3.2 | 0.00 | 0.00 | 0.00 | 80 | 1013.2 |
| 20260503054504 | 0 | 350 | 3.2 | 3.2 | 0.00 | 0.00 | 0.00 | 80 | 1013.3 |
| 20260503054003 | 0 | 350 | 3.2 | 3.2 | 0.00 | 0.00 | 0.00 | 80 | 1013.3 |
| 20260503053004 | 0 | 350 | 3.2 | 3.2 | 0.00 | 0.00 | 0.00 | 80 | 1013.4 |
| 20260503052004 | 0 | 350 | 3.2 | 3.2 | 0.00 | 0.00 | 0.00 | 80 | 1013.5 |
| 20260503050503 | 0 | 10 | 3.2 | 3.2 | 0.00 | 0.00 | 0.00 | 79 | 1013.5 |
| 20260503050004 | 0 | 10 | 3.2 | 3.2 | 0.00 | 0.00 | 0.00 | 79 | 1013.5 |
| 20260503045504 | 0 | 10 | 3.2 | 3.2 | 0.00 | 0.00 | 0.00 | 79 | 1013.5 |
| 20260503045004 | 0 | 10 | 3.2 | 3.2 | 0.00 | 0.00 | 0.00 | 79 | 1013.6 |
| 20260503044503 | 0 | 10 | 3.2 | 3.2 | 0.00 | 0.00 | 0.00 | 80 | 1013.6 |
| 20260503044004 | 0 | 10 | 3.2 | 3.2 | 0.00 | 0.00 | 0.00 | 81 | 1013.6 |
| 20260503043504 | 0 | 10 | 3.2 | 3.2 | 0.00 | 0.00 | 0.00 | 83 | 1013.7 |
| 20260503043004 | 0 | 10 | 3.2 | 3.2 | 0.00 | 0.00 | 0.00 | 84 | 1013.7 |
| 20260503042504 | 0 | 10 | 3.2 | 3.2 | 0.00 | 0.00 | 0.00 | 82 | 1013.6 |
| 20260503042004 | 0 | 10 | 3.2 | 3.2 | 0.00 | 0.00 | 0.00 | 81 | 1013.7 |
| 20260503041504 | 1 | 330 | 3.2 | 3.2 | 0.00 | 0.00 | 0.00 | 79 | 1013.6 |
| 20260503041004 | 1 | 330 | 3.2 | 3.2 | 0.00 | 0.00 | 0.00 | 78 | 1013.7 |
| 20260503040504 | 1 | 330 | 3.2 | 3.2 | 0.00 | 0.00 | 0.00 | 77 | 1013.7 |
| 20260503040004 | 1 | 330 | 3.2 | 3.2 | 0.00 | 0.00 | 0.00 | 77 | 1013.6 |
| 20260503035004 | 1 | 330 | 3.2 | 3.2 | 0.00 | 0.00 | 0.00 | 77 | 1013.7 |
| 20260503034504 | 1 | 330 | 3.2 | 3.2 | 0.00 | 0.00 | 0.00 | 77 | 1013.7 |
| 20260503034004 | 1 | 330 | 3.2 | 3.2 | 0.00 | 0.00 | 0.00 | 78 | 1013.7 |
| 20260503033504 | 1 | 330 | 3.2 | 3.2 | 0.00 | 0.00 | 0.00 | 78 | 1013.7 |
| 20260503033004 | 1 | 330 | 3.2 | 3.2 | 0.00 | 0.00 | 0.00 | 79 | 1013.6 |
| 20260503032503 | 1 | 330 | 3.2 | 3.2 | 0.00 | 0.00 | 0.00 | 78 | 1013.7 |
| 20260503032004 | 1 | 330 | 3.2 | 4.8 | 0.00 | 0.00 | 0.00 | 78 | 1013.7 |
| 20260503031504 | 1 | 270 | 4.8 | 4.8 | 0.00 | 0.00 | 0.00 | 79 | 1013.7 |
| 20260503031004 | 1 | 270 | 4.8 | 4.8 | 0.00 | 0.00 | 0.00 | 77 | 1013.6 |
| 20260503030504 | 1 | 270 | 4.8 | 4.8 | 0.00 | 0.00 | 0.00 | 77 | 1013.7 |
| 20260503025504 | 1 | 270 | 4.8 | 4.8 | 0.00 | 0.00 | 0.00 | 78 | 1013.7 |
| 20260503025003 | 2 | 270 | 4.8 | 4.8 | 0.00 | 0.00 | 0.00 | 75 | 1013.7 |
| 20260503024504 | 2 | 270 | 4.8 | 4.8 | 0.00 | 0.00 | 0.00 | 75 | 1013.8 |
| 20260503024003 | 2 | 270 | 4.8 | 4.8 | 0.00 | 0.00 | 0.00 | 76 | 1013.9 |
| 20260503023504 | 2 | 270 | 4.8 | 4.8 | 0.00 | 0.00 | 0.00 | 74 | 1013.9 |
| 20260503023004 | 2 | 270 | 4.8 | 4.8 | 0.00 | 0.00 | 0.00 | 74 | 1013.9 |
| 20260503022504 | 2 | 270 | 4.8 | 4.8 | 0.00 | 0.00 | 0.00 | 73 | 1013.9 |
| 20260503022004 | 2 | 270 | 4.8 | 4.8 | 0.00 | 0.00 | 0.00 | 73 | 1013.9 |
| 20260503021504 | 2 | 270 | 4.8 | 4.8 | 0.00 | 0.00 | 0.00 | 73 | 1013.9 |
| 20260503020504 | 2 | 270 | 4.8 | 4.8 | 0.00 | 0.00 | 0.00 | 74 | 1013.9 |
| 20260503020003 | 2 | 270 | 4.8 | 4.8 | 0.00 | 0.00 | 0.00 | 74 | 1013.9 |